Timeline UpdatesTrip UpdatesNews PostsPvt PostsTravel TipsAdmin PostsConv PostsFollowed PostsChat RequestsBlog PostsPNR Posts

Disclaimer
Search
 
 
Tue Sep 2, 2014 19:39:45 ISTHomeTrainsΣChainsAtlasPNRForumGalleryNewsFAQTripsMembersLoginFeedback
No Recent News for this Train
Other Trains in the News **new
Latest...
.
Fri Feb 28, 2014 (07:32PM)
⇐ Return Journey: Train# 19216

19215/Saurashtra Express

Time-Table HAS CHANGED.
Yesterday (8:18PM)
Change Departure Station:
Change Arrival Station:
Post a Train Travel TipPost a Train Travel Tip **new
Post a Comment/Question/Picture/VideoPost a Comment/Question/Picture/Video
Pantry/Catering
✕ NO Pantry Car
✓ Catering Avbl
RSA - Rake Sharing
Rake/Coach Composition
ENG - SLR - GEN - GEN - GEN - FC1 - B1 - S4 - S3 - S2 - S1 - LD - GEN - RMS - GEN - GEN - GEN - SLR - Milk van
Loco
BCT-ADI: BRC WAP-4/ ADI-PBR: VTA WDM-3A
News    PNR    Forum    Time-Table    Availability    Fare Chart    Map    Arr/Dep History    Trips    Gallery    ΣChains    X/O    Timeline    
Travel Time: 5h 16m    20 halts    Distance: 259 km    Avg Speed: 49 km/hr
Type: Mail/Express
Zone: WR/Western
Departs @ 08:20
Platform# 3
SMTWTFS
Mumbai Central/BCT 
Arrives @ 13:36
Platform# 1
SMTWTFS
Udhna Junction/UDN 

20 halts. 56 intermediate Stations between Mumbai Central and Udhna Junction

Show ALL intermediate Stations  Show Old Time-Table

#CodeStation NameX/OArrivesAvgDepartsAvgHaltPFDay#KmSpeedElevZoneAddress
1BCT»Mumbai Central (9)»  -08:20-310.0363mWRMumbai 400008, Maharashtra
2DDRMumbai Dadar Western (6)  08:30-08:32-2m315.9516mWRMumbai, Maharashtra
3BVIMumbai Borivali (8)X  09:00-09:02-2m4129.74519mWRMumbai - 400092, Maharashtra
4BSRVasai Road (7)  09:25-09:27-2m4147.1467mWRVasai 401202, Maharashtra
5VRVirar (8)  09:38-09:40-2m3155.5656mWRDist. Palghar, Maharashtra
6SAHSaphale (2)X  09:55-09:57-2m1171.8748mWRDist. Palghar, Maharashtra
7PLGPalghar (3)X  10:09-10:11-2m--186.66819mWRPalghar, Maharashtra
8BORBoisar (3)X  10:21-10:23-2m2197.96517mWRBoisar Tel.no-02525-266626, Maharashtra
9DRDDahanu Road (5)X  10:43-10:45-2m--1119.66712mWRDahanu, Maharashtra
10GVDGholvad (4)X  10:55-10:57-2m--1130.86914mWRGholvad, Maharashtra
11UBRUmbargam Road (3)  11:08 11:05-11:10 11:07-2m11139.94030mWRUmbergaon, Gujarat
12SJNSanjan (3)X  11:19 11:15-11:21 11:17-2m--1145.36922mWRSanjan, Gujarat
13BLDBhilad (3)X11:34 11:27-11:36 11:29-2m--1156.96233mWRBhilad, Gujarat
14VAPIVapi (3)X  11:40-11:42-2m11168.14827mWRVapi, Gujarat
15UVDUdvada (3)X  11:54-11:56-2m--1177.76018mWRUdvada, Gujarat
16PADPardi (3)  12:02-12:04-2m--1183.73619mWRValsad, Gujarat
17BLValsad (3)X  12:23 12:22-12:25 12:24-2m11194.46015mWRValsad, Gujarat
18BIMBilimora Junction (4)  12:45 12:42-12:47 12:44-2m11212.34811mWRBilimora, Gujarat
19AMLAmalsad (3)  12:53 12:51-12:55 12:52-2 1m--1217.97212mWRAmalsad, Gujarat
20NVSNavsari (3)X  13:08 13:05-13:10 13:07-2m11233.54614mWRNavsari, Gujarat
21MRLMaroli (3)  13:21 13:18-13:23 13:20-2m11241.96415mWRMaroli, Gujarat
22UDN•Udhna Junction (3)•X  13:40 13:36-13:42 13:38-2m11259.1816mWRUdhna 394210, Gujarat
23STSurat (4)X  14:10-14:15-5m11263.15919mWRSurat 395001, Gujarat
24SYNSayan (3)  14:29-14:31-2m--1276.88521mWRSayan Satellite town, Gujarat
25KIMKim (2)  14:38-14:40-2m--1286.75818mWRNH 8, Gujarat
26KSBKosamba Junction (3)X  14:48-14:50-2m--1294.57130mWRKosamba, Gujarat
27PAOPanoli (3)  14:57-14:59-2m--1302.76929mWRPanoli, Gujarat
28AKVAnkleshwar Junction (4)X  15:08-15:10-2m11313.04319mWRAnkleshwar, Gujarat
29BHBharuch Junction (5)  15:23-15:25-2m31322.46619mWRBharuch, Gujarat
30NIUNabipur (3)X  15:36-15:38-2m--1334.48024mWRNabipur, Gujarat
31PLJPalej (4)  15:48-15:50-2m--1347.88329mWRPalej, Gujarat
32MYGMiyagam Karjan (2)  16:01-16:03-2m21363.07029mWRKarjan, Gujarat
33ITAItola (4)  16:13-16:15-2m--1374.64827mWRNational Highway 8 Vadodara, Gujarat
34VSVishvamitri (4)XO  16:34-16:36-2m--1389.9930mWRVadodara, Gujarat
35BRCVadodara Junction (7)X  16:55-17:00-5m41392.95036mWRVadodara 390005, Gujarat
36VDAVasad Junction (3)X  17:24-17:26-2m21413.15240mWRVasad, Gujarat
37ANNDAnand Junction (6)  17:44-17:46-2m--1428.65644mWRAnand, Gujarat
38KBRVKanjari Boriyavi Junction (4)X  17:54-17:56-2m--1436.15539mWRKanjari, Gujarat
39NDNadiad Junction (4)O  18:08-18:10-2m--1447.15037mWRNadiad, Gujarat
40MHDMahemdavad Kheda Road (4)XO  18:31-18:33-2m31464.65737mWRMahemdavad, Gujarat
41BJDBarejadi Nandej (3)  18:45-18:47-2m--1476.03842mWRBareja-Barejadi Rd, Gujarat
42MANManinagar (2)X  19:21 19:08-19:23 19:10-2m11489.5650mWRAhmadabad, Gujarat
43ADIAhmedabad Junction (12)XO19:40-20:00-20m61492.61951mWRAhmedabad, Gujarat
44SBTSabarmati Junction (3) new halt!!  20:17-20:19-2m--1498.03852mWRAhmedabad, Gujarat
45CLDYChandlodiya  20:28-20:30-2m--1503.76859mWRAhmedabad, Gujarat
46ABDAmbli RoadX  20:35-20:37-2m--1509.47050mWRAhmedabad, Gujarat
47SAUSanand  20:47-20:49-2m--1521.05840mWRSanand, Gujarat
48CEChharodi  21:00-21:02-2m--1531.77029mWRSH 17, Gujarat
49JKAJakhvadaX  21:14-21:16-2m--1545.63031mWRState Highway 17, Gujarat
50VGViramgam Junction (5)X  21:41-21:43-2m11558.05129mWRViramgam, Gujarat
51SUNRSurendranagar Junction (4)  22:58 23:00-23:00 23:05-2 5m11623.57272mWRSurendra Nagar, Gujarat
52THANThan Junction (3)  23:45-23:47-2m11671.257138mWRThangadh, Gujarat
53WKRWankaner Junction (4)X  00:13 00:15-00:15 00:20-2 5m--2697.84387mWRWankaner, Gujarat
54RJTRajkot Junction (5)X  01:18-01:24-6m32739.665128mWRRajkot, Gujarat
55HAPAHapa (3)X  02:32 02:34-02:34 02:36-2m--2815.54316mWRJamnagar, Gujarat
56JAMJamnagar (2)X  02:46 02:48-02:48 02:53-2 5m--2824.15214mWRJamnagar, Gujarat
57LPJLalpur Jam  03:44-03:46-2m--2868.26076mWRLalpur, Gujarat
58GOPGop Jam  04:03-04:05-2m--2885.265126mWRState Highway 27, Gujarat
59BNVDBhanvad  04:22-04:24-2m--2903.75555mWRBhanvad, Gujarat
60WSJWansjaliya  04:44-04:45-1m--2921.98455mWRTarsai - Vansjaliya, Gujarat
61SKRSakhpur  04:50-04:52-2m--2928.93155mWRto railway station, Gujarat
62RWORanavavX  05:18-05:20-2m--2942.22737mWRRanavav, Gujarat
63PBRPorbandar  05:50--12955.5-7mWRPorbandar, Gujarat
Scroll to Top
Scroll to Bottom